Previsão horária em Abaran

Hoje, 12 Abril, Segunda-feira

Tempo Temperatura Precipitação Vento Pressão Humidade
00:00 +15°C° 0 mm 2 m/s 729 mmHg 73%
01:00 +14°C° 0 mm 2 m/s 729 mmHg 77%
02:00 +13°C° 0 mm 2 m/s 730 mmHg 81%
03:00 +13°C° 0 mm 2 m/s 730 mmHg 86%
04:00 +12°C° 0 mm 1 m/s 730 mmHg 86%
05:00 +12°C° 0 mm 1 m/s 731 mmHg 87%
06:00 +12°C° 0 mm 1 m/s 731 mmHg 88%
07:00 +13°C° 0 mm 1 m/s 731 mmHg 83%
08:00 +13°C° 0 mm 2 m/s 732 mmHg 78%
09:00 +14°C° 0 mm 2 m/s 732 mmHg 73%
10:00 +14°C° 0 mm 2 m/s 732 mmHg 71%
11:00 +13°C° 0 mm 3 m/s 733 mmHg 69%
12:00 +14°C° 0 mm 3 m/s 733 mmHg 68%
13:00 +14°C° 0 mm 4 m/s 733 mmHg 66%
14:00 +14°C° 0 mm 4 m/s 732 mmHg 65%
15:00 +15°C° 0 mm 4 m/s 732 mmHg 64%
16:00 +14°C° 0 mm 4 m/s 732 mmHg 66%
17:00 +13°C° 0 mm 4 m/s 733 mmHg 69%
18:00 +13°C° 0 mm 4 m/s 733 mmHg 71%
19:00 +12°C° 0 mm 3 m/s 733 mmHg 75%
20:00 +12°C° 0 mm 2 m/s 734 mmHg 79%
21:00 +12°C° 0 mm 2 m/s 734 mmHg 83%
22:00 +12°C° 0 mm 2 m/s 734 mmHg 85%
23:00 +12°C° 0 mm 1 m/s 734 mmHg 86%

Amanhã, 13 Abril, Terça-feira

Tempo Temperatura Precipitação Vento Pressão Humidade
00:00 +11°C° 0 mm 1 m/s 734 mmHg 88%
01:00 +11°C° 0 mm 1 m/s 734 mmHg 87%
02:00 +11°C° 0 mm 1 m/s 733 mmHg 85%
03:00 +11°C° 0 mm 1 m/s 733 mmHg 83%
04:00 +12°C° 0 mm 1 m/s 733 mmHg 83%
05:00 +12°C° 0 mm 1 m/s 733 mmHg 82%
06:00 +12°C° 0 mm 1 m/s 733 mmHg 82%
07:00 +12°C° 0 mm 1 m/s 734 mmHg 78%
08:00 +13°C° 0 mm 2 m/s 734 mmHg 74%
09:00 +14°C° 0 mm 2 m/s 734 mmHg 70%
10:00 +15°C° 0 mm 2 m/s 734 mmHg 64%
11:00 +16°C° 0 mm 3 m/s 733 mmHg 58%
12:00 +18°C° 0 mm 3 m/s 733 mmHg 52%
13:00 +18°C° 0 mm 3 m/s 732 mmHg 50%
14:00 +19°C° 0 mm 4 m/s 732 mmHg 48%
15:00 +19°C° 0 mm 4 m/s 731 mmHg 46%
16:00 +18°C° 0 mm 4 m/s 731 mmHg 49%
17:00 +17°C° 0 mm 4 m/s 731 mmHg 52%
18:00 +15°C° 0 mm 4 m/s 731 mmHg 55%
19:00 +14°C° 0 mm 3 m/s 731 mmHg 61%
20:00 +14°C° 0 mm 2 m/s 732 mmHg 66%
21:00 +13°C° 0 mm 2 m/s 732 mmHg 72%
22:00 +12°C° 0 mm 1 m/s 732 mmHg 75%
23:00 +12°C° 0 mm 1 m/s 732 mmHg 77%

Depois de amanhã, 14 Abril, Quarta-feira

Tempo Temperatura Precipitação Vento Pressão Humidade
00:00 +11°C° 0 mm 1 m/s 731 mmHg 79%
01:00 +11°C° 0 mm 1 m/s 731 mmHg 80%
02:00 +11°C° 0 mm 1 m/s 731 mmHg 81%
03:00 +11°C° 0 mm 1 m/s 730 mmHg 81%
04:00 +11°C° 0 mm 1 m/s 730 mmHg 81%
05:00 +11°C° 0 mm 1 m/s 730 mmHg 80%
06:00 +11°C° 0 mm 1 m/s 730 mmHg 80%
07:00 +12°C° 0 mm 1 m/s 730 mmHg 72%
08:00 +14°C° 0 mm 2 m/s 730 mmHg 64%
09:00 +15°C° 0 mm 2 m/s 730 mmHg 57%
10:00 +16°C° 0 mm 3 m/s 730 mmHg 53%
11:00 +17°C° 0 mm 4 m/s 730 mmHg 49%
12:00 +19°C° 0 mm 5 m/s 729 mmHg 45%
13:00 +17°C° 0.1 mm 5 m/s 729 mmHg 48%
14:00 +16°C° 0.1 mm 5 m/s 728 mmHg 51%
15:00 +15°C° 0.1 mm 5 m/s 728 mmHg 54%
16:00 +14°C° 1 mm 4 m/s 728 mmHg 64%
17:00 +13°C° 1 mm 4 m/s 728 mmHg 74%
18:00 +11°C° 1 mm 3 m/s 728 mmHg 84%
19:00 +11°C° 1.9 mm 3 m/s 728 mmHg 86%
20:00 +10°C° 1.9 mm 2 m/s 729 mmHg 88%
21:00 +10°C° 1.9 mm 2 m/s 729 mmHg 91%
22:00 +10°C° 0.9 mm 2 m/s 729 mmHg 90%
23:00 +10°C° 0.9 mm 2 m/s 728 mmHg 90%

15 Abril, Quinta-feira

Tempo Temperatura Precipitação Vento Pressão Humidade
00:00 +10°C° 0.9 mm 2 m/s 728 mmHg 90%
01:00 +10°C° 0.3 mm 2 m/s 727 mmHg 89%
02:00 +10°C° 0.3 mm 2 m/s 727 mmHg 88%
03:00 +10°C° 0.3 mm 2 m/s 727 mmHg 88%
04:00 +10°C° 0.2 mm 3 m/s 727 mmHg 88%
05:00 +10°C° 0.2 mm 3 m/s 726 mmHg 88%
06:00 +10°C° 0.2 mm 3 m/s 726 mmHg 88%
07:00 +10°C° 0.5 mm 3 m/s 726 mmHg 87%
08:00 +10°C° 0.5 mm 4 m/s 726 mmHg 86%
09:00 +11°C° 0.5 mm 4 m/s 726 mmHg 84%
10:00 +11°C° 0.1 mm 4 m/s 726 mmHg 83%
11:00 +11°C° 0.1 mm 4 m/s 726 mmHg 81%
12:00 +11°C° 0.1 mm 4 m/s 726 mmHg 79%
13:00 +11°C° 0.1 mm 4 m/s 725 mmHg 80%
14:00 +11°C° 0.1 mm 4 m/s 725 mmHg 81%
15:00 +11°C° 0.1 mm 4 m/s 725 mmHg 81%
16:00 +11°C° 0.1 mm 4 m/s 725 mmHg 83%
17:00 +11°C° 0.1 mm 3 m/s 725 mmHg 84%
18:00 +11°C° 0.1 mm 3 m/s 725 mmHg 85%
19:00 +11°C° 0.6 mm 3 m/s 725 mmHg 87%
20:00 +10°C° 0.6 mm 3 m/s 726 mmHg 88%
21:00 +10°C° 0.6 mm 3 m/s 726 mmHg 90%
22:00 +10°C° 1.2 mm 3 m/s 726 mmHg 90%
23:00 +10°C° 1.2 mm 3 m/s 726 mmHg 90%

16 Abril, Sexta-feira

Tempo Temperatura Precipitação Vento Pressão Humidade
00:00 +10°C° 1.2 mm 3 m/s 725 mmHg 90%
01:00 +10°C° 1.2 mm 3 m/s 725 mmHg 89%
02:00 +10°C° 1.2 mm 3 m/s 725 mmHg 88%
03:00 +9°C° 1.2 mm 3 m/s 725 mmHg 88%
04:00 +9°C° 0.5 mm 3 m/s 726 mmHg 86%
05:00 +9°C° 0.5 mm 2 m/s 726 mmHg 85%
06:00 +9°C° 0.5 mm 2 m/s 726 mmHg 84%
07:00 +10°C° 0 mm 2 m/s 727 mmHg 79%
08:00 +10°C° 0 mm 2 m/s 727 mmHg 74%
09:00 +12°C° 0 mm 2 m/s 727 mmHg 70%
10:00 +14°C° 0 mm 2 m/s 727 mmHg 63%
11:00 +15°C° 0 mm 2 m/s 727 mmHg 56%
12:00 +16°C° 0 mm 2 m/s 727 mmHg 50%
13:00 +17°C° 0 mm 2 m/s 726 mmHg 47%
14:00 +18°C° 0 mm 1 m/s 726 mmHg 45%
15:00 +19°C° 0 mm 1 m/s 726 mmHg 43%
16:00 +17°C° 0 mm 2 m/s 726 mmHg 50%
17:00 +16°C° 0 mm 3 m/s 726 mmHg 57%
18:00 +14°C° 0 mm 4 m/s 726 mmHg 64%
19:00 +13°C° 0 mm 4 m/s 726 mmHg 70%
20:00 +12°C° 0 mm 3 m/s 727 mmHg 76%
21:00 +12°C° 0 mm 2 m/s 727 mmHg 81%
22:00 +12°C° 0 mm 2 m/s 727 mmHg 83%
23:00 +12°C° 0 mm 1 m/s 726 mmHg 84%

17 Abril, Sábado

Tempo Temperatura Precipitação Vento Pressão Humidade
00:00 +11°C° 0 mm 1 m/s 726 mmHg 85%
01:00 +11°C° 0 mm 1 m/s 726 mmHg 85%
02:00 +11°C° 0 mm 1 m/s 726 mmHg 86%
03:00 +11°C° 0 mm 1 m/s 725 mmHg 86%
04:00 +10°C° 0 mm 2 m/s 726 mmHg 80%
05:00 +10°C° 0 mm 4 m/s 726 mmHg 73%
06:00 +8°C° 0 mm 5 m/s 726 mmHg 66%
07:00 +9°C° 0 mm 6 m/s 727 mmHg 55%
08:00 +10°C° 0 mm 6 m/s 727 mmHg 44%
09:00 +11°C° 0 mm 7 m/s 728 mmHg 33%
10:00 +12°C° 0 mm 7 m/s 727 mmHg 31%
11:00 +13°C° 0 mm 8 m/s 727 mmHg 29%
12:00 +15°C° 0 mm 8 m/s 727 mmHg 27%
13:00 +16°C° 0 mm 9 m/s 727 mmHg 26%
14:00 +17°C° 0 mm 9 m/s 726 mmHg 24%
15:00 +18°C° 0 mm 9 m/s 726 mmHg 22%
16:00 +17°C° 0 mm 8 m/s 727 mmHg 27%
17:00 +16°C° 0 mm 7 m/s 727 mmHg 31%
18:00 +15°C° 0 mm 5 m/s 728 mmHg 36%
19:00 +13°C° 0 mm 4 m/s 729 mmHg 44%
20:00 +12°C° 0 mm 3 m/s 729 mmHg 51%
21:00 +11°C° 0 mm 1 m/s 730 mmHg 59%
22:00 +11°C° 0 mm 1 m/s 730 mmHg 61%
23:00 +10°C° 0 mm 1 m/s 731 mmHg 64%
Mostrar mais